Weather Roundup
Issued by NWS

Home | Current Version | Previous Version | Graphics & Text | Print | Product List | Glossary On
Versions: 1 2 3 4 5 6 7 8 9 10 11 12 13 14 15 16 17 18 19 20 21 22 23 24 25 26 27 28 29 30 31 32 33 34 35 36 37 38 39 40 41 42 43 44 45 46 47 48 49 50
184
NZUS93 KARX 090310
HRRWXR

CURRENT HOURLY OBSERVATIONS ACROSS
MUCH OF THE UPPER MISSISSIPPI VALLEY
NATIONAL WEATHER SERVICE LA CROSSE WI
900 PM CST MON FEB 08 2016


...SOUTHEAST MINNESOTA...


CITY           SKY/WX    TMP DP  RH WIND       PRES   REMARKS
ROCHESTER      LGT SNOW  13   8  81 N18       29.88S WCI  -4
ROCHESTER/MAYO CLOUDY    14  10  83 NW10G18   29.90R WCI   1
WINONA         CLOUDY    18  12  79 N13G18    29.92S WCI   4
AUSTIN         LGT SNOW  12  10  92 NW16G22   29.90S WCI  -4
ALBERT LEA     LGT SNOW  12   9  85 NW12G20   29.92S WCI  -2
DODGE CENTER   LGT SNOW  12   9  85 NW17      29.89S WCI  -5
PRESTON        LGT SNOW  12   8  82 N16       29.87F WCI  -4
OWATONNA       LGT SNOW  12   9  85 NW20G26   29.93F WCI  -6
FARIBAULT      LGT SNOW  12   9  85 NW13G21   29.95F WCI  -3
$$

...ELSEWHERE IN MINNESOTA...


CITY           SKY/WX    TMP DP  RH WIND       PRES   REMARKS
MINNEAPOLIS    FLURRIES  14   5  67 NW21G29   29.97S WCI  -4
INTNL FALLS    CLOUDY     3  -4  72 N15       30.05S WCI -16
DULUTH         FLURRIES   5  -2  72 NW15G28   29.89R WCI -13
RED WING       FLURRIES  16   7  67 N8        29.94S WCI   5
REDWOOD FALLS  PTCLDY    10   2  69 NW21G35   30.05F WCI  -9
MANKATO        CLOUDY   N/A N/A N/A NW21G32   29.97S
WORTHINGTON    CLOUDY   N/A N/A N/A NW26      30.03F
FAIRMONT       CLOUDY    12   3  67 NW28G33   29.98S WCI  -9
$$

...SOUTHWEST WISCONSIN...


CITY           SKY/WX    TMP DP  RH WIND       PRES   REMARKS
LA CROSSE      LGT SNOW  15  10  80 NW13      29.89F WCI   1
PRAIRIE DU CHI MIX PCPN  16   9  76 NW10      29.89S WCI   3
BOSCOBEL       LGT SNOW  16  10  77 NW6       29.88S WCI   7
LONE ROCK      LGT SNOW  16   8  71 NW13      29.85S WCI   2
PLATTEVILLE    CLOUDY    15  10  78 NW14G20   29.83R WCI   1
FORT MC COY    LGT SNOW  14  10  82 NW9       29.87S WCI   2
CAMP DOUGLAS   FLURRIES  14  14 100 NW12      29.83R WCI   0
VIROQUA        CLOUDY    12   9  87 NW13      29.82S WCI  -2
WIS DELLS      LGT SNOW  14   9  80 NW8       29.81S WCI   3
$$

...ELSEWHERE IN WISCONSIN...


CITY           SKY/WX    TMP DP  RH WIND       PRES   REMARKS
MILWAUKEE      LGT SNOW  22  17  81 NW20      29.72S FOG     WCI   7
MADISON        FLURRIES  16   8  71 NW15G22   29.79R WCI   1
GREEN BAY      MIX PCPN  21  16  81 N12       29.75R WCI   9
EAU CLAIRE     CLOUDY    12   5  73 NW9       29.89S HAZE    WCI   0
BLACK RVR FLS  LGT SNOW  14   8  75 NW8G16    29.86F WCI   3
MEDFORD        CLOUDY    10   4  78 NW15      29.78S WCI  -7
WAUSAU         LGT SNOW  15   9  76 NW10G20   29.76F WCI   2
WIS RAPIDS     LGT SNOW  14   7  73 N14       29.81S WCI  -1
MARSHFIELD     LGT SNOW  12   6  77 NW16      29.79R WCI  -5
RICE LAKE      CLOUDY    10   3  71 NW10G18   29.91S WCI  -3
$$

...NORTHEAST IOWA...


CITY           SKY/WX    TMP DP  RH WIND       PRES   REMARKS
WATERLOO       LGT SNOW  15  10  80 NW18      29.92S WCI  -2
DUBUQUE        FLURRIES  15   8  73 N17G26    29.83F WCI  -1
DECORAH        LGT SNOW  14  10  85 NW14G23   29.86S WCI  -1
MASON CITY     LGT SNOW  12   7  80 NW26G39   29.94S WCI  -8
CHARLES CITY   LGT SNOW  14  12  92 NW22      29.90F WCI  -4
OELWEIN        LGT SNOW  14  10  85 NW18      29.89F WCI  -3
$$

...ELSEWHERE IN IOWA...


CITY           SKY/WX    TMP DP  RH WIND       PRES   REMARKS
DES MOINES     FLURRIES  19   9  65 NW22G33   30.00S WCI   2
IOWA CITY      LGT SNOW  17  11  77 NW13      29.93F WCI   4
FORT DODGE     CLEAR     12   3  67 NW16G22   30.01S WCI  -4
MARSHALLTOWN   CLOUDY    16  11  80 NW24G33   29.94F WCI  -2
CEDAR RAPIDS   LGT SNOW  15  12  88 NW16G24   29.89F FOG     WCI  -1
$$

...NORTHERN ILLINOIS...


CITY           SKY/WX    TMP DP  RH WIND       PRES   REMARKS
CHICAGO-OHARE  LGT SNOW  24  19  81 NW13      29.74S WCI  12
CHICAGO-MIDWAY FLURRIES  26  18  71 NW14      29.74F WCI  14
MOLINE         FLURRIES  18   9  68 NW20G25   29.88S WCI   2
ROCKFORD       CLOUDY    22  12  65 NW14G22   29.80S WCI   9
PEORIA         CLOUDY    19  11  70 NW10      29.87S WCI   7
$$

NOTE: "FAIR" INDICATES FEW OR NO CLOUDS BELOW 12,000 FEET WITH NO
SIGNIFICANT WEATHER AND/OR OBSTRUCTIONS TO VISIBILITY. WIND
SPEEDS ARE IN MILES-PER-HOUR.




USA.gov is the U.S. government's official web portal to all federal, state and local government web resources and services.